Flag for U.S.A. Weather past 2 weeks in Key West, Florida, U.S.A.

Now
85 °F

Sunny.


Feels Like: 93 °F
Forecast: 81 / 88 °F
Wind: 17 mph from East

Location: Key West International Airport

Current Time: May 24, 2015 at 5:47:05 PM

Latest Report: May 24, 2015 at 4:53 PM


Visibility: 10 mi

Pressure: 30.07 "Hg

Humidity: 72%

Dew point: 75 °F

Location of Key WestLocation

Historic Weather in Key West — Graph

°F

Key West temperature yesterday

Maximum temperature yesterday: 88 °F (at 1:53 PM)
Minimum temperature yesterday: 81 °F (at 1:53 AM)
Average temperature yesterday: 84 °F

Past Weeks' High & Low Weather Summary

 TemperatureHumidityPressure
High89 °F (May 20, 4:53 PM)97% (May 11, 9:53 PM)30.19 "Hg (May 11, 9:53 PM)
Low73 °F (May 19, 2:00 AM)55% (May 19, 2:53 PM)29.95 "Hg (May 20, 6:53 PM)
Average82 °F75%30.08 "Hg
* Reported May 9 3:53 PM — May 24 3:53 PM, Key West, Weather by CustomWeather, © 2015

Note: Actual official high and low records may vary slightly from our data, if they occured in-between our weather recording intervals... More about our weather records

Advertising

Key West weather history for previous 24 hours

 ConditionsComfort  
Time TempWeatherWind HumidityBarometerVisibility
3:53 PM
Sun, May 24
86 °FSunny.18 mph70%30.09 "Hg10 mi
2:53 PM87 °FSunny.16 mph67%30.11 "Hg10 mi
1:53 PM87 °FPassing clouds.15 mph67%30.12 "Hg10 mi
12:53 PM86 °FPassing clouds.15 mph70%30.14 "Hg10 mi
11:53 AM86 °FPassing clouds.14 mph67%30.14 "Hg10 mi
10:53 AM86 °FPassing clouds.14 mph70%30.15 "Hg10 mi
9:53 AM84 °FPassing clouds.15 mph72%30.14 "Hg10 mi
8:53 AM83 °FPassing clouds.16 mph74%30.13 "Hg10 mi
7:53 AM82 °FPassing clouds.16 mph74%30.13 "Hg10 mi
6:53 AM81 °FPassing clouds.17 mph77%30.12 "Hg10 mi
5:53 AM81 °FPartly cloudy.15 mph79%30.10 "Hg10 mi
4:53 AM81 °FPassing clouds.16 mph79%30.09 "Hg10 mi
3:53 AM81 °FPassing clouds.18 mph79%30.09 "Hg10 mi
2:53 AM81 °FClear.16 mph77%30.09 "Hg10 mi
1:53 AM82 °FPassing clouds.15 mph72%30.11 "Hg10 mi
12:53 AM82 °FPassing clouds.16 mph72%30.14 "Hg10 mi
11:53 PM
Sat, May 23
82 °FPassing clouds.18 mph72%30.14 "Hg10 mi
10:53 PM82 °FPassing clouds.20 mph77%30.14 "Hg10 mi
9:53 PM82 °FClear.17 mph74%30.12 "Hg10 mi
8:53 PM83 °FSunny.15 mph65%30.12 "Hg10 mi
7:53 PM83 °FSunny.16 mph70%30.12 "Hg10 mi
6:53 PM84 °FSunny.13 mph67%30.11 "Hg10 mi
5:53 PM85 °FPassing clouds.14 mph70%30.11 "Hg10 mi
Weather by CustomWeather, © 2015

See weather overviewHow to use our weather pages